Location: Ferchesar
(52.6477°N, 12.4298°E)
Time: 10:18:32
(UTC+01:00)

S-56A Canister/Altair - Pass Details

Date: 14 December 2021
Orbit: 633 x 2499 km, 38.9° (Epoch: 19 January)

Event Time Altitude Azimuth Distance (km) Brightness Sun altitude
Rises 02:57:56 0° 269° (W) 4,836 - -46.0°
Reaches altitude 10° 03:05:50 10° 230° (SW) 3,179 - -44.9°
Maximum altitude 03:06:14 10° 227° (SW) 3,141 - -44.8°
Drops below altitude 10° 03:06:38 10° 224° (SW) 3,110 - -44.8°
Sets 03:12:44 0° 179° (S) 3,543 - -43.9°
